Previsão horária em Abovyan

Hoje, 30 Setembro, Quarta-feira

Tempo Temperatura Precipitação Vento Pressão Humidade
00:00 +16°C° 0 mm 2 m/s 673 mmHg 61%
01:00 +16°C° 0 mm 2 m/s 672 mmHg 62%
02:00 +15°C° 0 mm 2 m/s 672 mmHg 63%
03:00 +15°C° 0 mm 1 m/s 672 mmHg 63%
04:00 +15°C° 0 mm 1 m/s 671 mmHg 64%
05:00 +14°C° 0 mm 1 m/s 671 mmHg 65%
06:00 +14°C° 0 mm 1 m/s 671 mmHg 66%
07:00 +16°C° 0 mm 1 m/s 671 mmHg 60%
08:00 +17°C° 0 mm 2 m/s 671 mmHg 54%
09:00 +19°C° 0 mm 2 m/s 671 mmHg 48%
10:00 +20°C° 0 mm 2 m/s 671 mmHg 44%
11:00 +21°C° 0 mm 2 m/s 671 mmHg 41%
12:00 +23°C° 0 mm 2 m/s 671 mmHg 37%
13:00 +24°C° 0 mm 2 m/s 670 mmHg 35%
14:00 +24°C° 0 mm 2 m/s 670 mmHg 33%
15:00 +25°C° 0 mm 2 m/s 670 mmHg 31%
16:00 +23°C° 0 mm 2 m/s 670 mmHg 35%
17:00 +22°C° 0 mm 1 m/s 670 mmHg 39%
18:00 +20°C° 0 mm 1 m/s 670 mmHg 43%
19:00 +20°C° 0 mm 1 m/s 670 mmHg 46%
20:00 +18°C° 0 mm 2 m/s 670 mmHg 50%
21:00 +18°C° 0 mm 2 m/s 670 mmHg 53%
22:00 +18°C° 0 mm 2 m/s 670 mmHg 55%
23:00 +17°C° 0 mm 2 m/s 670 mmHg 56%

Amanhã, 1 Outubro, Quinta-feira

Tempo Temperatura Precipitação Vento Pressão Humidade
00:00 +17°C° 0 mm 2 m/s 670 mmHg 58%
01:00 +16°C° 0 mm 2 m/s 670 mmHg 58%
02:00 +16°C° 0 mm 2 m/s 670 mmHg 59%
03:00 +15°C° 0 mm 1 m/s 670 mmHg 60%
04:00 +15°C° 0 mm 2 m/s 670 mmHg 60%
05:00 +15°C° 0 mm 2 m/s 670 mmHg 60%
06:00 +15°C° 0 mm 2 m/s 670 mmHg 60%
07:00 +16°C° 0 mm 2 m/s 671 mmHg 55%
08:00 +18°C° 0 mm 2 m/s 671 mmHg 49%
09:00 +20°C° 0 mm 2 m/s 672 mmHg 43%
10:00 +21°C° 0 mm 2 m/s 672 mmHg 40%
11:00 +24°C° 0 mm 2 m/s 671 mmHg 36%
12:00 +25°C° 0 mm 3 m/s 671 mmHg 32%
13:00 +26°C° 0 mm 3 m/s 671 mmHg 31%
14:00 +26°C° 0 mm 2 m/s 671 mmHg 30%
15:00 +27°C° 0 mm 2 m/s 671 mmHg 29%
16:00 +25°C° 0 mm 2 m/s 671 mmHg 35%
17:00 +22°C° 0 mm 3 m/s 670 mmHg 40%
18:00 +21°C° 0 mm 3 m/s 670 mmHg 45%
19:00 +20°C° 0 mm 3 m/s 671 mmHg 47%
20:00 +19°C° 0 mm 3 m/s 671 mmHg 49%
21:00 +19°C° 0 mm 2 m/s 671 mmHg 50%
22:00 +18°C° 0 mm 2 m/s 671 mmHg 52%
23:00 +18°C° 0 mm 2 m/s 671 mmHg 54%

Depois de amanhã, 2 Outubro, Sexta-feira

Tempo Temperatura Precipitação Vento Pressão Humidade
00:00 +18°C° 0 mm 1 m/s 671 mmHg 55%
01:00 +18°C° 0 mm 1 m/s 671 mmHg 56%
02:00 +16°C° 0 mm 1 m/s 671 mmHg 57%
03:00 +16°C° 0 mm 1 m/s 671 mmHg 57%
04:00 +16°C° 0 mm 1 m/s 671 mmHg 58%
05:00 +16°C° 0 mm 1 m/s 671 mmHg 60%
06:00 +15°C° 0 mm 1 m/s 671 mmHg 61%
07:00 +19°C° 0 mm 1 m/s 672 mmHg 54%
08:00 +20°C° 0 mm 2 m/s 672 mmHg 47%
09:00 +23°C° 0 mm 2 m/s 673 mmHg 41%
10:00 +24°C° 0 mm 2 m/s 672 mmHg 38%
11:00 +25°C° 0 mm 2 m/s 672 mmHg 36%
12:00 +27°C° 0 mm 2 m/s 672 mmHg 33%
13:00 +27°C° 0 mm 3 m/s 672 mmHg 31%
14:00 +28°C° 0 mm 3 m/s 672 mmHg 29%
15:00 +28°C° 0 mm 3 m/s 671 mmHg 27%
16:00 +27°C° 0 mm 2 m/s 671 mmHg 29%
17:00 +25°C° 0 mm 2 m/s 671 mmHg 31%
18:00 +23°C° 0 mm 1 m/s 671 mmHg 34%
19:00 +23°C° 0 mm 1 m/s 672 mmHg 36%
20:00 +21°C° 0 mm 2 m/s 672 mmHg 38%
21:00 +20°C° 0 mm 2 m/s 673 mmHg 40%
22:00 +19°C° 0 mm 2 m/s 673 mmHg 45%
23:00 +18°C° 0 mm 3 m/s 672 mmHg 50%

3 Outubro, Sábado

Tempo Temperatura Precipitação Vento Pressão Humidade
00:00 +17°C° 0 mm 3 m/s 672 mmHg 55%
01:00 +17°C° 0 mm 2 m/s 672 mmHg 56%
02:00 +16°C° 0 mm 2 m/s 672 mmHg 58%
03:00 +16°C° 0 mm 1 m/s 672 mmHg 59%
04:00 +15°C° 0 mm 1 m/s 672 mmHg 59%
05:00 +15°C° 0 mm 1 m/s 672 mmHg 60%
06:00 +15°C° 0 mm 1 m/s 672 mmHg 60%
07:00 +18°C° 0 mm 1 m/s 673 mmHg 53%
08:00 +20°C° 0 mm 1 m/s 673 mmHg 46%
09:00 +22°C° 0 mm 1 m/s 674 mmHg 40%
10:00 +23°C° 0 mm 1 m/s 674 mmHg 36%
11:00 +25°C° 0 mm 1 m/s 674 mmHg 33%
12:00 +26°C° 0 mm 2 m/s 674 mmHg 29%
13:00 +26°C° 0 mm 2 m/s 674 mmHg 27%
14:00 +27°C° 0 mm 2 m/s 673 mmHg 24%
15:00 +27°C° 0 mm 2 m/s 673 mmHg 22%
16:00 +25°C° 0 mm 2 m/s 673 mmHg 26%
17:00 +23°C° 0 mm 1 m/s 673 mmHg 31%
18:00 +22°C° 0 mm 1 m/s 672 mmHg 36%
19:00 +20°C° 0 mm 2 m/s 673 mmHg 39%
20:00 +19°C° 0 mm 3 m/s 673 mmHg 42%
21:00 +19°C° 0 mm 3 m/s 674 mmHg 46%
22:00 +18°C° 0 mm 3 m/s 674 mmHg 48%
23:00 +18°C° 0 mm 2 m/s 674 mmHg 50%

4 Outubro, Domingo

Tempo Temperatura Precipitação Vento Pressão Humidade
00:00 +17°C° 0 mm 2 m/s 674 mmHg 52%
01:00 +16°C° 0 mm 2 m/s 673 mmHg 53%
02:00 +16°C° 0 mm 2 m/s 673 mmHg 54%
03:00 +16°C° 0 mm 2 m/s 673 mmHg 55%
04:00 +15°C° 0 mm 2 m/s 673 mmHg 57%
05:00 +15°C° 0 mm 1 m/s 673 mmHg 59%
06:00 +14°C° 0 mm 1 m/s 673 mmHg 62%
07:00 +16°C° 0 mm 1 m/s 674 mmHg 56%
08:00 +19°C° 0 mm 1 m/s 675 mmHg 50%
09:00 +21°C° 0 mm 1 m/s 675 mmHg 44%
10:00 +22°C° 0.1 mm 1 m/s 675 mmHg 41%
11:00 +23°C° 0.1 mm 1 m/s 675 mmHg 38%
12:00 +25°C° 0.1 mm 2 m/s 675 mmHg 36%
13:00 +25°C° 0.2 mm 1 m/s 675 mmHg 34%
14:00 +26°C° 0.2 mm 1 m/s 675 mmHg 32%
15:00 +26°C° 0.2 mm 1 m/s 674 mmHg 30%
16:00 +24°C° 0 mm 1 m/s 674 mmHg 36%
17:00 +22°C° 0 mm 1 m/s 674 mmHg 42%
18:00 +21°C° 0 mm 1 m/s 674 mmHg 47%
19:00 +19°C° 0 mm 2 m/s 674 mmHg 49%
20:00 +18°C° 0 mm 2 m/s 674 mmHg 51%
21:00 +18°C° 0 mm 3 m/s 675 mmHg 53%
22:00 +17°C° 0 mm 2 m/s 675 mmHg 55%
23:00 +17°C° 0 mm 2 m/s 675 mmHg 57%

5 Outubro, Segunda-feira

Tempo Temperatura Precipitação Vento Pressão Humidade
00:00 +16°C° 0 mm 2 m/s 675 mmHg 59%
01:00 +16°C° 0 mm 2 m/s 674 mmHg 61%
02:00 +15°C° 0 mm 2 m/s 674 mmHg 62%
03:00 +15°C° 0 mm 2 m/s 674 mmHg 64%
04:00 +14°C° 0 mm 2 m/s 674 mmHg 65%
05:00 +14°C° 0 mm 1 m/s 674 mmHg 66%
06:00 +14°C° 0 mm 1 m/s 674 mmHg 67%
07:00 +16°C° 0 mm 1 m/s 675 mmHg 61%
08:00 +19°C° 0 mm 1 m/s 675 mmHg 54%
09:00 +21°C° 0 mm 1 m/s 675 mmHg 47%
10:00 +22°C° 0 mm 1 m/s 675 mmHg 44%
11:00 +23°C° 0 mm 1 m/s 675 mmHg 41%
12:00 +24°C° 0 mm 2 m/s 675 mmHg 37%
13:00 +25°C° 0 mm 1 m/s 675 mmHg 36%
14:00 +25°C° 0 mm 1 m/s 674 mmHg 35%
15:00 +26°C° 0 mm 1 m/s 674 mmHg 34%
16:00 +24°C° 0 mm 1 m/s 674 mmHg 39%
17:00 +22°C° 0 mm 1 m/s 673 mmHg 43%
18:00 +18°C° 0 mm 0 m/s 673 mmHg 48%
19:00 +20°C° 0 mm 1 m/s 673 mmHg 51%
20:00 +18°C° 0 mm 2 m/s 674 mmHg 54%
21:00 +18°C° 0 mm 2 m/s 674 mmHg 56%
22:00 +17°C° 0 mm 2 m/s 674 mmHg 57%
23:00 +17°C° 0 mm 2 m/s 674 mmHg 59%
Mostrar mais